This is the latest recevied weather packets stored in our database for station/object JH1LWU-13. If no packets are shown the sender has not sent any weather packets the latest 10 day(s).
| Time | Temp. | Humidity | Pressure | Rain* | Wind** | Luminosity | Snow |
|---|---|---|---|---|---|---|---|
| 1788146360 | 81° F | 58% | 758.3 mmHg | - | - | - | - |
| 1788144559 | 79° F | 62% | 757.6 mmHg | - | - | - | - |
| 1788142758 | 78° F | 62% | 757.6 mmHg | - | - | - | - |
| 1788140957 | 77° F | 65% | 757.6 mmHg | - | - | - | - |
| 1788139156 | 77° F | 66% | 756.8 mmHg | - | - | - | - |
| 1788137355 | 76° F | 69% | 758.3 mmHg | - | - | - | - |
| 1788135554 | 75° F | 72% | 757.6 mmHg | - | - | - | - |
| 1788133753 | 73° F | 77% | 757.6 mmHg | - | - | - | - |
| 1788131952 | 72° F | 80% | 758.3 mmHg | - | - | - | - |
| 1788130151 | 71° F | 81% | 757.6 mmHg | - | - | - | - |
| 1788128350 | 72° F | 79% | 758.3 mmHg | - | - | - | - |
| 1788126549 | 73° F | 77% | 756.1 mmHg | - | - | - | - |
| 1788124748 | 73° F | 78% | 756.1 mmHg | - | - | - | - |
| 1788122947 | 72° F | 78% | 755.3 mmHg | - | - | - | - |
| 1788121146 | 72° F | 78% | 756.8 mmHg | - | - | - | - |
| 1788119345 | 72° F | 78% | 756.1 mmHg | - | - | - | - |
| 1788117544 | 73° F | 77% | 755.3 mmHg | - | - | - | - |
| 1788115743 | 72° F | 77% | 755.3 mmHg | - | - | - | - |
| 1788113942 | 73° F | 76% | 755.3 mmHg | - | - | - | - |
| 1788112141 | 73° F | 77% | 756.1 mmHg | - | - | - | - |
| 1788110340 | 73° F | 77% | 755.3 mmHg | - | - | - | - |
| 1788108539 | 73° F | 77% | 755.3 mmHg | - | - | - | - |
| 1788106738 | 73° F | 76% | 755.3 mmHg | - | - | - | - |
| 1788104937 | 73° F | 76% | 754.6 mmHg | - | - | - | - |
| 1788103136 | 73° F | 76% | 755.3 mmHg | - | - | - | - |
* Rain since midnight (hover to see other rain measurements)
** Current wind speed in m/s (hover to see current wind gust speed)